Hourly Data Report for October 23, 2013

All times are specified in Local Standard Time (LST). Add 1 hour to adjust for Daylight Saving Time where and when it is observed.

PANGNIRTUNG
NUNAVUT

66°08'36.300" N
65°42'40.500" W
22.60 m
2403049
71826
WXP

Download Data

Hourly Data (October 2013)
Hourly Data Report for October 23, 2013
Temp Definition
°C
Dew Point Temp Definition
°C
Rel Hum Definition
%
Wind Dir Definition
10's deg

Wind Spd Definition
km/h
Visibility Definition
km
Stn Press Definition
kPa
Hmdx Definition


Wind Chill Definition


Weather Definition


TIME
00:00 -0.3 -5.5 68 12 7   100.88   -3 LegendNANA
01:00 -0.7 -5.5 70 5 11   100.86   -4 LegendNANA
02:00 -1.1 -6.3 68 6 13   100.87   -5 LegendNANA
03:00 -1.4 -6.4 69 6 13   100.84   -6 LegendNANA
04:00 -2.1 -6.4 72 7 9   100.83   -6 LegendNANA
05:00 -2.2 -7.3 68 10 9   100.81   -6 LegendNANA
06:00 -2.8 -7.8 68 11 7   100.79   -6 LegendNANA
07:00 -3.1 -8.3 67 11 6   100.77   -6 LegendNANA
08:00 -2.8 -8.5 65 9 7   100.76   -6 LegendNANA
09:00 -3.4 -8.7 67 8 6   100.74   -6 LegendNANA
10:00 -3.4 -8.6 67 14 4   100.71   -5 LegendNANA
11:00 -2.8 -8.9 63 13 7   100.68   -6 LegendNANA
12:00 -2.8 -8.8 63 9 6   100.65   -5 LegendNANA
13:00 -2.5 -9.4 59 16 4   100.64   -4 LegendNANA
14:00 -2.5 -9.6 58 13 6   100.64   -5 LegendNANA
15:00 -2.3 -9.7 57 10 6   100.64   -5 LegendNANA
16:00 -3.9 -9.8 64 14 4   100.64   -6 LegendNANA
17:00 -3.7 -9.8 63 11 6   100.63   -6 LegendNANA
18:00 -4.6 -10.2 65 10 2   100.64   -5 LegendNANA
19:00 -4.2 -10.5 61 8 2   100.64   -5 LegendNANA
20:00 -4.8 -10.6 64 8 4   100.63   -7 LegendNANA
21:00 -4.0 -10.3 62 9 4   100.60   -6 LegendNANA
22:00 -4.6 -10.6 63 10 4   100.59   -6 LegendNANA
23:00 -5.1 -10.4 66 19 2   100.56   -6 LegendNANA

Notes on Data Quality.

Legend

  • E = Estimated
  • M = Missing
  • NA = Not Available
  • ‡ = Partner data that is not subject to review by the National Climate Archives
Date modified: